Location: Newark
(3.0500°N, 36.0167°E)
Time: 10:15:03
(UTC+00:00)

Vanguard 1 Rocket - Visible Passes

Search period start: 21 August 2019 00:00
Search period end: 31 August 2019 00:00
Orbit: 652 x 4224 km, 34.3° (Epoch: 20 August)

Date Brightness Start Highest point End Pass type
(mag) Time Alt. Az. Time Alt. Az. Time Alt. Az.
21 Aug 9.9 17:05:28 10° SSW 17:15:32 21° SSE 17:17:36 20° SSE visible
21 Aug 10.8 19:34:35 10° SW 19:34:56 11° SW 19:34:56 11° SW visible
22 Aug 10.4 15:50:38 10° SSW 16:01:00 17° SSE 16:08:26 10° SE visible
22 Aug 9.8 18:20:57 10° SW 18:28:04 29° SSW 18:28:04 29° SSW visible
23 Aug 9.5 17:06:54 10° SSW 17:19:22 28° SSE 17:21:15 27° SE visible
23 Aug 10.6 19:37:16 10° WSW 19:38:34 14° WSW 19:38:34 14° WSW visible
24 Aug 10.6 03:10:03 10° NNE 03:11:46 11° NE 03:13:40 10° NE visible
24 Aug 10.1 15:52:07 10° SSW 16:05:12 22° SSE 16:13:46 10° ESE visible
24 Aug 9.4 18:23:02 10° SW 18:31:47 39° SSW 18:31:47 39° SSW visible
25 Aug 9.1 17:08:35 10° SW 17:23:00 39° SSE 17:25:02 36° SE visible
25 Aug 10.5 19:40:16 10° WSW 19:42:22 16° WSW 19:42:22 16° WSW visible
26 Aug 10.4 03:10:39 10° N 03:14:56 15° NE 03:20:35 10° ENE visible
26 Aug 9.9 15:53:41 10° SSW 16:09:10 29° SSE 16:18:19 11° ESE visible
26 Aug 9.1 18:25:23 10° SW 18:35:39 51° SW 18:35:39 51° SW visible
27 Aug 8.8 17:10:27 10° SW 17:26:25 53° SSE 17:28:57 45° ESE visible
27 Aug 10.5 19:43:40 10° WSW 19:46:17 17° W 19:46:17 17° W visible
28 Aug 10.1 03:12:30 10° N 03:17:52 20° NE 03:25:50 10° E visible
28 Aug 9.9 15:55:21 10° SW 16:12:54 37° SSE 16:22:17 12° E visible
28 Aug 8.9 18:28:01 10° WSW 18:39:37 59° W 18:39:37 59° W visible
29 Aug 8.7 17:12:33 10° SW 17:29:36 70° SE 17:32:58 47° E visible
29 Aug 10.5 19:47:34 10° W 19:50:18 16° W 19:50:18 16° W visible
30 Aug 9.7 15:57:07 10° SW 16:16:23 49° SSE 16:26:19 11° E visible
30 Aug 9.0 18:31:00 10° WSW 18:43:39 52° NW 18:43:39 52° NW visible
